Flag for Canada Weather past 2 weeks in Labrador City, Newfoundland and Labrador, Canada

Now
-8 °F

Light snow. Overcast.


Feels Like: -35 °F
Forecast: -15 / 1 °F
Wind: 26 mph from Northwest

Location: Wabush Lake

Current Time: Mar 5, 2015 at 4:39:49 AM

Latest Report: Mar 5, 2015 at 4:00 AM


Visibility: 1 mi

Pressure: 29.40 "Hg

Humidity: 70%

Dew point: -15 °F

Location of Labrador CityLocation

Historic Weather in Labrador City — Graph

°F

Labrador City temperature yesterday

Maximum temperature yesterday: 12 °F (at 3:00 PM)
Minimum temperature yesterday: -18 °F (at 12:00 AM)
Average temperature yesterday: 1 °F

Past Weeks' High & Low Weather Summary

 TemperatureHumidityPressure
High16 °F (Mar 1, 2:00 PM)85% (Feb 19, 6:00 PM)30.28 "Hg (Feb 19, 6:00 PM)
Low-33 °F (Feb 28, 7:00 AM)46% (Feb 18, 3:00 PM)29.21 "Hg (Mar 4, 4:00 PM)
Average-7 °F71%29.86 "Hg
* Reported Feb 18 3:00 AM — Mar 5 3:00 AM, Labrador City, Weather by CustomWeather, © 2015

Note: Actual official high and low records may vary slightly from our data, if they occured in-between our weather recording intervals... More about our weather records

Advertising

Labrador City weather history for previous 24 hours

 ConditionsComfort  
Time TempWeatherWind HumidityBarometerVisibility
3:00 AM
Thu, Mar 5
-6 °FLight snow. Overcast.12 mph70%29.39 "Hg3 mi
2:58 AM-6 °FLight snow. Overcast.15 mph70%29.39 "Hg3 mi
2:00 AM-6 °FPassing clouds.7 mph77%29.38 "Hg6 mi
1:48 AM-6 °FPassing clouds.8 mph77%29.37 "Hg9 mi
1:00 AM-4 °FClear.14 mph71%29.35 "Hg9 mi
12:00 AM0 °FPassing clouds.20 mph65%29.32 "Hg9 mi
11:00 PM
Wed, Mar 4
3 °FLight snow. Overcast.12 mph72%29.28 "Hg5 mi
10:00 PM7 °FLight snow. Mostly cloudy.14 mph78%29.26 "Hg6 mi
9:00 PM12 °FLight snow. Mostly cloudy.20 mph79%29.22 "Hg4 mi
8:00 PM12 °FLight snow. Overcast.8 mph79%29.22 "Hg6 mi
6:00 PM12 °FLight snow. Overcast.9 mph85%29.22 "Hg3 mi
5:00 PM12 °FLight snow. More clouds than sun.12 mph79%29.21 "Hg4 mi
4:00 PM12 °FLight snow. More clouds than sun.7 mph79%29.21 "Hg2 mi
3:47 PM12 °FLight snow. More clouds than sun.12 mph79%29.22 "Hg2 mi
3:00 PM12 °FLight snow. Sandstorm.15 mph73%29.22 "Hg3 mi
2:00 PM10 °FLight snow. Overcast.14 mph79%29.24 "Hg3 mi
1:00 PM10 °FLight snow. Mostly cloudy.17 mph72%29.26 "Hg5 mi
12:00 PM9 °FLight snow. Mostly cloudy.16 mph72%29.31 "Hg10 mi
11:00 AM7 °FLight snow. Broken clouds.20 mph72%29.36 "Hg6 mi
10:00 AM3 °FLight snow. Overcast.14 mph78%29.41 "Hg3 mi
9:00 AM0 °FLight snow. Overcast.12 mph84%29.44 "Hg4 mi
8:00 AM-8 °FLight snow. Mostly cloudy.No wind77%29.47 "Hg6 mi
7:00 AM-9 °FLight snow. Overcast.No wind84%29.49 "Hg3 mi
6:00 AM-9 °FLight snow. Overcast.No wind77%29.52 "Hg3 mi
5:00 AM-9 °FLight snow. Overcast.No wind77%29.55 "Hg1 mi
4:00 AM-11 °FLight snow. Overcast.2 mph76%29.60 "Hg2 mi
Weather by CustomWeather, © 2015

See weather overviewHow to use our weather pages